User: anonymous   Login
Location: Unspecified
(0.0000°N, 0.0000°E)
Time: 00:29:11
(UTC+00:00)
Language:

Tsikada - Orbit

View from above orbital plane
View from above orbital plane
View from above satellite
View from above satellite

Ground track
Ground track

The orbit data is extracted from the following two-line orbital elements,

1 23463U 95002A   21023.58613100  .00000036  00000-0  23108-4 0  9993
2 23463  82.9262  32.9512 0038169 210.7749 271.6693 13.72515309302126
Epoch (UTC): 23 January 2021 14:04:01
Eccentricity: 0.0038169
inclination: 82.9262°
perigee height: 962 km
apogee height: 1018 km
right ascension of ascending node: 32.9512°
argument of perigee: 210.7749°
revolutions per day: 13.72515309
mean anomaly at epoch: 271.6693°
orbit number at epoch: 30212

The dashed part of the orbit path shows where the satellite is in the earth's shadow,  

DLR